Tracking 19847 objects as of 16-Sep-2019
HD Live streaming from Space Station
objects crossing your sky now

FENGYUN 1C DEB

Track FENGYUN 1C DEB now!
10-day predictions


NORAD ID: 37896
Int'l Code: 1999-025EMV
Perigee: 414.4 km
Apogee: 577.4 km
Inclination: 98.6 °
Period: 94.4 minutes
Semi major axis: 6866 km
RCS: 0.0005 m2 (small)
Launch date: May 10, 1999
Source: People's Republic of China (PRC)
Launch site: Taiyaun Space Center, China (TSC)

Note: This is SATELLITE DEBRIS
aabbcc
Your satellite tracking list
Your tracking list is empty




NASA's NSSDC Master Catalog

Two Line Element Set (TLE):
1 37896U 99025EMV 19256.39171396 +.00004356 +00000-0 +14307-3 0  9996
2 37896 098.6038 233.0589 0118691 192.8416 166.9789 15.25678274296804
Source of the keplerian elements: AFSPC